Time,TemperatureF,DewpointF,PressureIn,WindDirection,WindDirectionDegrees,WindSpeedMPH,WindSpeedGustMPH,Humidity,HourlyPrecipIn,Conditions,Clouds,dailyrainin,SoftwareType,DateUTC
2013-02-28 00:01:00,31.0,19.0,-100.00,NNE,20,7.0,14.0,61,0.00,,,-99.99,,2013-02-28 06:01:00,
2013-02-28 00:11:00,31.0,19.0,-100.00,NNE,20,7.0,14.0,61,0.00,,,-99.99,,2013-02-28 06:11:00,
2013-02-28 00:22:00,31.0,19.0,-100.00,NNE,20,7.0,14.0,61,0.00,,,-99.99,,2013-02-28 06:22:00,
2013-02-28 00:32:00,31.0,19.0,-100.00,NNE,20,7.0,14.0,61,0.00,,,-99.99,,2013-02-28 06:32:00,
2013-02-28 00:52:00,31.0,18.0,-100.00,North,0,6.0,15.0,59,0.00,,,-99.99,,2013-02-28 06:52:00,
2013-02-28 01:01:00,31.0,18.0,-100.00,North,0,6.0,15.0,59,0.00,,,-99.99,,2013-02-28 07:01:00,
2013-02-28 01:11:00,31.0,18.0,-100.00,North,0,6.0,15.0,59,0.00,,,-99.99,,2013-02-28 07:11:00,
2013-02-28 01:21:00,31.0,18.0,-100.00,North,0,6.0,15.0,59,0.00,,,-99.99,,2013-02-28 07:21:00,
2013-02-28 01:32:00,31.0,18.0,-100.00,North,0,6.0,15.0,59,0.00,,,-99.99,,2013-02-28 07:32:00,
2013-02-28 01:52:00,31.0,18.0,-100.00,North,0,7.0,16.0,58,0.00,,,-99.99,,2013-02-28 07:52:00,
2013-02-28 02:01:00,31.0,18.0,-100.00,North,0,7.0,16.0,58,0.00,,,-99.99,,2013-02-28 08:01:00,
2013-02-28 02:11:00,31.0,18.0,-100.00,North,0,7.0,16.0,58,0.00,,,-99.99,,2013-02-28 08:11:00,
2013-02-28 02:22:00,31.0,18.0,-100.00,North,0,7.0,16.0,58,0.00,,,-99.99,,2013-02-28 08:22:00,
2013-02-28 02:32:00,31.0,18.0,-100.00,North,0,7.0,16.0,58,0.00,,,-99.99,,2013-02-28 08:32:00,
2013-02-28 02:53:00,31.0,18.0,-100.00,NE,35,4.0,13.0,59,0.00,,,-99.99,,2013-02-28 08:53:00,
2013-02-28 03:03:00,31.0,18.0,-100.00,NE,35,4.0,13.0,59,0.00,,,-99.99,,2013-02-28 09:03:00,
2013-02-28 03:11:00,31.0,18.0,-100.00,NE,35,4.0,13.0,59,0.00,,,-99.99,,2013-02-28 09:11:00,
2013-02-28 03:22:00,31.0,18.0,-100.00,NE,35,4.0,13.0,59,0.00,,,-99.99,,2013-02-28 09:22:00,
2013-02-28 03:32:00,31.0,18.0,-100.00,NE,35,4.0,13.0,59,0.00,,,-99.99,,2013-02-28 09:32:00,
2013-02-28 04:02:00,31.0,19.0,-100.00,North,5,5.0,14.0,61,0.00,,,-99.99,,2013-02-28 10:02:00,
2013-02-28 04:11:00,31.0,19.0,-100.00,North,5,5.0,14.0,61,0.00,,,-99.99,,2013-02-28 10:11:00,
2013-02-28 04:22:00,31.0,19.0,-100.00,North,5,5.0,14.0,61,0.00,,,-99.99,,2013-02-28 10:22:00,
2013-02-28 04:32:00,31.0,19.0,-100.00,North,5,5.0,14.0,61,0.00,,,-99.99,,2013-02-28 10:32:00,
2013-02-28 04:52:00,31.0,19.0,-100.00,NNE,15,7.0,16.0,61,0.00,,,-99.99,,2013-02-28 10:52:00,
2013-02-28 05:01:00,31.0,19.0,-100.00,NNE,15,7.0,16.0,61,0.00,,,-99.99,,2013-02-28 11:01:00,
2013-02-28 05:11:00,31.0,19.0,-100.00,NNE,15,7.0,16.0,61,0.00,,,-99.99,,2013-02-28 11:11:00,
2013-02-28 05:22:00,31.0,19.0,-100.00,NNE,15,7.0,16.0,61,0.00,,,-99.99,,2013-02-28 11:22:00,
2013-02-28 05:32:00,31.0,19.0,-100.00,NNE,15,7.0,16.0,61,0.00,,,-99.99,,2013-02-28 11:32:00,
2013-02-28 05:52:00,30.0,18.0,-100.00,North,0,4.0,12.0,61,0.00,,,-99.99,,2013-02-28 11:52:00,
2013-02-28 06:02:00,30.0,18.0,-100.00,North,0,4.0,12.0,61,0.00,,,-99.99,,2013-02-28 12:02:00,
2013-02-28 06:11:00,30.0,18.0,-100.00,North,0,4.0,12.0,61,0.00,,,-99.99,,2013-02-28 12:11:00,
2013-02-28 06:22:00,30.0,18.0,-100.00,North,0,4.0,12.0,61,0.00,,,-99.99,,2013-02-28 12:22:00,
2013-02-28 06:32:00,30.0,18.0,-100.00,North,0,4.0,12.0,61,0.00,,,-99.99,,2013-02-28 12:32:00,
2013-02-28 06:52:00,30.0,19.0,-100.00,NNE,15,2.0,11.0,63,0.00,,,-99.99,,2013-02-28 12:52:00,
2013-02-28 07:02:00,30.0,19.0,-100.00,NNE,15,2.0,11.0,63,0.00,,,-99.99,,2013-02-28 13:02:00,
2013-02-28 07:11:00,30.0,19.0,-100.00,NNE,15,2.0,11.0,63,0.00,,,-99.99,,2013-02-28 13:11:00,
2013-02-28 07:22:00,30.0,19.0,-100.00,NNE,15,2.0,11.0,63,0.00,,,-99.99,,2013-02-28 13:22:00,
2013-02-28 07:32:00,30.0,19.0,-100.00,NNE,15,2.0,11.0,63,0.00,,,-99.99,,2013-02-28 13:32:00,
2013-02-28 07:52:00,30.0,19.0,-100.00,North,5,6.0,12.0,64,0.00,,,-99.99,,2013-02-28 13:52:00,
2013-02-28 08:01:00,30.0,19.0,-100.00,North,5,6.0,12.0,64,0.00,,,-99.99,,2013-02-28 14:01:00,
2013-02-28 08:11:00,30.0,19.0,-100.00,North,5,6.0,12.0,64,0.00,,,-99.99,,2013-02-28 14:11:00,
2013-02-28 08:22:00,30.0,19.0,-100.00,North,5,6.0,12.0,64,0.00,,,-99.99,,2013-02-28 14:22:00,
2013-02-28 08:32:00,30.0,19.0,-100.00,North,5,6.0,12.0,64,0.00,,,-99.99,,2013-02-28 14:32:00,
2013-02-28 08:52:00,30.0,18.0,-100.00,NNE,30,5.0,20.0,60,0.00,,,-99.99,,2013-02-28 14:52:00,
2013-02-28 09:02:00,30.0,18.0,-100.00,NNE,30,5.0,20.0,60,0.00,,,-99.99,,2013-02-28 15:02:00,
2013-02-28 09:11:00,30.0,18.0,-100.00,NNE,30,5.0,20.0,60,0.00,,,-99.99,,2013-02-28 15:11:00,
2013-02-28 09:21:00,30.0,18.0,-100.00,NNE,30,5.0,20.0,60,0.00,,,-99.99,,2013-02-28 15:21:00,
2013-02-28 09:32:00,30.0,18.0,-100.00,NNE,30,5.0,20.0,60,0.00,,,-99.99,,2013-02-28 15:32:00,
2013-02-28 09:52:00,30.0,17.0,-100.00,NNE,20,6.0,16.0,57,0.00,,,-99.99,,2013-02-28 15:52:00,
2013-02-28 10:02:00,30.0,17.0,-100.00,NNE,20,6.0,16.0,57,0.00,,,-99.99,,2013-02-28 16:02:00,
2013-02-28 10:12:00,30.0,17.0,-100.00,NNE,20,6.0,16.0,57,0.00,,,-99.99,,2013-02-28 16:12:00,
2013-02-28 10:22:00,30.0,17.0,-100.00,NNE,20,6.0,16.0,57,0.00,,,-99.99,,2013-02-28 16:22:00,
2013-02-28 11:02:00,29.0,15.0,-100.00,North,0,6.0,14.0,54,0.00,,,-99.99,,2013-02-28 17:02:00,
2013-02-28 11:12:00,29.0,15.0,-100.00,North,0,6.0,14.0,54,0.00,,,-99.99,,2013-02-28 17:12:00,
2013-02-28 11:22:00,29.0,15.0,-100.00,North,0,6.0,14.0,54,0.00,,,-99.99,,2013-02-28 17:22:00,
2013-02-28 11:32:00,29.0,15.0,-100.00,North,0,6.0,14.0,54,0.00,,,-99.99,,2013-02-28 17:32:00,
2013-02-28 11:53:00,30.0,12.0,-100.00,NE,55,5.0,18.0,47,0.00,,,-99.99,,2013-02-28 17:53:00,
2013-02-28 12:02:00,30.0,12.0,-100.00,NE,55,5.0,18.0,47,0.00,,,-99.99,,2013-02-28 18:02:00,
2013-02-28 12:11:00,30.0,12.0,-100.00,NE,55,5.0,18.0,47,0.00,,,-99.99,,2013-02-28 18:11:00,
2013-02-28 12:22:00,30.0,12.0,-100.00,NE,55,5.0,18.0,47,0.00,,,-99.99,,2013-02-28 18:22:00,
2013-02-28 12:32:00,30.0,12.0,-100.00,NE,55,5.0,18.0,47,0.00,,,-99.99,,2013-02-28 18:32:00,
2013-02-28 12:52:00,31.0,12.0,-100.00,North,0,7.0,14.0,45,0.00,,,-99.99,,2013-02-28 18:52:00,
2013-02-28 13:02:00,31.0,12.0,-100.00,North,0,7.0,14.0,45,0.00,,,-99.99,,2013-02-28 19:02:00,
2013-02-28 13:11:00,31.0,12.0,-100.00,North,0,7.0,14.0,45,0.00,,,-99.99,,2013-02-28 19:11:00,
2013-02-28 13:21:00,31.0,12.0,-100.00,North,0,7.0,14.0,45,0.00,,,-99.99,,2013-02-28 19:21:00,
2013-02-28 13:32:00,31.0,12.0,-100.00,North,0,7.0,14.0,45,0.00,,,-99.99,,2013-02-28 19:32:00,
2013-02-28 13:52:00,32.0,10.0,-100.00,NE,50,7.0,15.0,41,0.00,,,-99.99,,2013-02-28 19:52:00,
2013-02-28 14:01:00,32.0,10.0,-100.00,NE,50,7.0,15.0,41,0.00,,,-99.99,,2013-02-28 20:01:00,
2013-02-28 14:12:00,32.0,10.0,-100.00,NE,50,7.0,15.0,41,0.00,,,-99.99,,2013-02-28 20:12:00,
2013-02-28 14:22:00,32.0,10.0,-100.00,NE,50,7.0,15.0,41,0.00,,,-99.99,,2013-02-28 20:22:00,
2013-02-28 14:32:00,32.0,10.0,-100.00,NE,50,7.0,15.0,41,0.00,,,-99.99,,2013-02-28 20:32:00,
2013-02-28 14:52:00,32.0,9.0,-100.00,NE,50,6.0,16.0,39,0.00,,,-99.99,,2013-02-28 20:52:00,
2013-02-28 15:02:00,32.0,9.0,-100.00,NE,50,6.0,16.0,39,0.00,,,-99.99,,2013-02-28 21:02:00,
2013-02-28 15:11:00,32.0,9.0,-100.00,NE,50,6.0,16.0,39,0.00,,,-99.99,,2013-02-28 21:11:00,
2013-02-28 15:22:00,32.0,9.0,-100.00,NE,50,6.0,16.0,39,0.00,,,-99.99,,2013-02-28 21:22:00,
2013-02-28 15:32:00,32.0,9.0,-100.00,NE,50,6.0,16.0,39,0.00,,,-99.99,,2013-02-28 21:32:00,
2013-02-28 15:52:00,31.0,9.0,-100.00,North,0,7.0,13.0,39,0.00,,,-99.99,,2013-02-28 21:52:00,
2013-02-28 16:01:00,31.0,9.0,-100.00,North,0,7.0,13.0,39,0.00,,,-99.99,,2013-02-28 22:01:00,
2013-02-28 16:11:00,31.0,9.0,-100.00,North,0,7.0,13.0,39,0.00,,,-99.99,,2013-02-28 22:11:00,
2013-02-28 16:22:00,31.0,9.0,-100.00,North,0,7.0,13.0,39,0.00,,,-99.99,,2013-02-28 22:22:00,
2013-02-28 16:32:00,31.0,9.0,-100.00,North,0,7.0,13.0,39,0.00,,,-99.99,,2013-02-28 22:32:00,
2013-02-28 16:52:00,30.0,8.0,-100.00,North,0,5.0,16.0,39,0.00,,,-99.99,,2013-02-28 22:52:00,
2013-02-28 17:01:00,30.0,8.0,-100.00,NNE,20,4.0,12.0,39,0.00,,,-99.99,,2013-02-28 23:01:00,
2013-02-28 17:11:00,30.0,8.0,-100.00,NNE,20,4.0,12.0,39,0.00,,,-99.99,,2013-02-28 23:11:00,
2013-02-28 17:22:00,30.0,8.0,-100.00,NNE,20,4.0,12.0,39,0.00,,,-99.99,,2013-02-28 23:22:00,
2013-02-28 17:32:00,30.0,8.0,-100.00,NNE,20,4.0,12.0,39,0.00,,,-99.99,,2013-02-28 23:32:00,
2013-02-28 17:53:00,29.0,7.0,-100.00,North,0,2.0,9.0,39,0.00,,,-99.99,,2013-02-28 23:53:00,
2013-02-28 18:01:00,29.0,7.0,-100.00,North,0,2.0,9.0,39,0.00,,,-99.99,,2013-03-01 00:01:00,
2013-02-28 18:11:00,29.0,7.0,-100.00,North,0,2.0,9.0,39,0.00,,,-99.99,,2013-03-01 00:11:00,
2013-02-28 18:22:00,29.0,7.0,-100.00,North,0,2.0,9.0,39,0.00,,,-99.99,,2013-03-01 00:22:00,
2013-02-28 18:32:00,29.0,7.0,-100.00,North,0,2.0,9.0,39,0.00,,,-99.99,,2013-03-01 00:32:00,
2013-02-28 18:52:00,27.0,5.0,-100.00,North,10,2.0,12.0,39,0.00,,,-99.99,,2013-03-01 00:52:00,
2013-02-28 19:01:00,27.0,5.0,-100.00,North,10,2.0,12.0,39,0.00,,,-99.99,,2013-03-01 01:01:00,
2013-02-28 19:11:00,27.0,5.0,-100.00,North,10,2.0,12.0,39,0.00,,,-99.99,,2013-03-01 01:11:00,
2013-02-28 19:21:00,27.0,5.0,-100.00,North,10,2.0,12.0,39,0.00,,,-99.99,,2013-03-01 01:21:00,
2013-02-28 19:52:00,26.0,6.0,-100.00,NNE,30,6.0,14.0,41,0.00,,,-99.99,,2013-03-01 01:52:00,
2013-02-28 20:01:00,26.0,6.0,-100.00,NNE,30,6.0,14.0,41,0.00,,,-99.99,,2013-03-01 02:01:00,
2013-02-28 20:11:00,26.0,6.0,-100.00,NNE,30,6.0,14.0,41,0.00,,,-99.99,,2013-03-01 02:11:00,
2013-02-28 20:21:00,26.0,6.0,-100.00,NNE,30,6.0,14.0,41,0.00,,,-99.99,,2013-03-01 02:21:00,
2013-02-28 20:32:00,26.0,6.0,-100.00,NNE,30,6.0,14.0,41,0.00,,,-99.99,,2013-03-01 02:32:00,
2013-02-28 21:02:00,25.0,6.0,-100.00,NE,55,4.0,14.0,43,0.00,,,-99.99,,2013-03-01 03:02:00,
2013-02-28 21:11:00,25.0,6.0,-100.00,NE,55,4.0,14.0,43,0.00,,,-99.99,,2013-03-01 03:11:00,
2013-02-28 21:21:00,25.0,6.0,-100.00,NE,55,4.0,14.0,43,0.00,,,-99.99,,2013-03-01 03:21:00,
2013-02-28 21:32:00,25.0,6.0,-100.00,NE,55,4.0,14.0,43,0.00,,,-99.99,,2013-03-01 03:32:00,
2013-02-28 21:52:00,24.0,5.0,-100.00,NE,50,5.0,12.0,44,0.00,,,-99.99,,2013-03-01 03:52:00,
2013-02-28 22:01:00,24.0,5.0,-100.00,NE,50,5.0,12.0,44,0.00,,,-99.99,,2013-03-01 04:01:00,
2013-02-28 22:11:00,24.0,5.0,-100.00,NE,50,5.0,12.0,44,0.00,,,-99.99,,2013-03-01 04:11:00,
2013-02-28 22:21:00,24.0,5.0,-100.00,NE,50,5.0,12.0,44,0.00,,,-99.99,,2013-03-01 04:21:00,
2013-02-28 22:32:00,24.0,5.0,-100.00,NE,50,5.0,12.0,44,0.00,,,-99.99,,2013-03-01 04:32:00,
2013-02-28 22:52:00,23.0,4.0,-100.00,East,90,7.0,14.0,44,0.00,,,-99.99,,2013-03-01 04:52:00,
2013-02-28 23:02:00,23.0,4.0,-100.00,East,90,7.0,14.0,44,0.00,,,-99.99,,2013-03-01 05:02:00,
2013-02-28 23:11:00,23.0,4.0,-100.00,East,90,7.0,14.0,44,0.00,,,-99.99,,2013-03-01 05:11:00,
2013-02-28 23:22:00,23.0,4.0,-100.00,East,90,7.0,14.0,44,0.00,,,-99.99,,2013-03-01 05:22:00,
2013-02-28 23:53:00,23.0,5.0,-100.00,ENE,65,5.0,11.0,46,0.00,,,-99.99,,2013-03-01 05:53:00,